Flag for U.S.A. Weather past 2 weeks in New Haven, Connecticut, U.S.A.

Now
39 °F

Sunny.


Feels Like: 33 °F
Forecast: 27 / 42 °F
Wind: 8 mph from North

Location: Tweed-New Haven Airport

Current Time: Mar 29, 2015 at 2:09:35 PM

Latest Report: Mar 29, 2015 at 12:53 PM


Visibility: 10 mi

Pressure: 30.22 "Hg

Humidity: 25%

Dew point: 6 °F

Location of New HavenLocation

Historic Weather in New Haven — Graph

°F

New Haven temperature yesterday

Maximum temperature yesterday: 39 °F (at 12:53 AM)
Minimum temperature yesterday: 29 °F (at 10:53 PM)
Average temperature yesterday: 33 °F

Past Weeks' High & Low Weather Summary

 TemperatureHumidityPressure
High54 °F (Mar 26, 10:03 PM)100% (Mar 14, 2:53 PM)30.42 "Hg (Mar 14, 2:53 PM)
Low20 °F (Mar 23, 6:53 AM)19% (Mar 19, 4:53 PM)29.50 "Hg (Mar 17, 2:53 PM)
Average34 °F64%30.00 "Hg
* Reported Mar 14 12:00 Noon — Mar 29 12:53 PM, New Haven, Weather by CustomWeather, © 2015

Note: Actual official high and low records may vary slightly from our data, if they occured in-between our weather recording intervals... More about our weather records

Advertising

New Haven weather history for previous 24 hours

 ConditionsComfort  
Time TempWeatherWind HumidityBarometerVisibility
12:53 PM
Sun, Mar 29
39 °FSunny.8 mph25%30.22 "Hg10 mi
11:53 AM38 °FSunny.8 mph33%30.23 "Hg10 mi
10:53 AM34 °FSunny.12 mph37%30.24 "Hg10 mi
9:53 AM32 °FSunny.13 mph36%30.24 "Hg10 mi
8:53 AM28 °FPartly sunny.3 mph45%30.23 "Hg10 mi
7:53 AM26 °FOvercast.6 mph46%30.22 "Hg10 mi
6:53 AM26 °FPassing clouds.9 mph48%30.18 "Hg10 mi
5:53 AM27 °FOvercast.12 mph51%30.15 "Hg10 mi
4:53 AM27 °FOvercast.7 mph58%30.12 "Hg10 mi
3:53 AM28 °FOvercast.8 mph61%30.10 "Hg10 mi
2:53 AM28 °FOvercast.12 mph66%30.09 "Hg10 mi
1:53 AM28 °FOvercast.7 mph72%30.08 "Hg10 mi
12:53 AM29 °FOvercast.13 mph75%30.07 "Hg10 mi
11:53 PM
Sat, Mar 28
29 °FIce fog.7 mph85%30.06 "Hg6 mi
10:53 PM29 °FLight snow. Ice fog.10 mph85%30.04 "Hg3 mi
10:00 PM30 °FLight snow. Ice fog.12 mph85%30.02 "Hg2 mi
8:53 PM30 °FLight snow. Ice fog.8 mph85%29.99 "Hg2 mi
7:53 PM30 °FLight snow. Ice fog.13 mph85%29.96 "Hg2 mi
6:53 PM31 °FLight snow. Ice fog.8 mph85%29.91 "Hg1 mi
5:53 PM31 °FLight snow. Ice fog.9 mph85%29.87 "Hg1 mi
4:53 PM32 °FLight snow. Ice fog.9 mph85%29.84 "Hg1 mi
3:53 PM32 °FLight snow. Ice fog.8 mph88%29.81 "Hg1 mi
2:53 PM32 °FLight snow. Ice fog.15 mph85%29.79 "Hg1 mi
Weather by CustomWeather, © 2015

See weather overviewHow to use our weather pages